Location: Praha
(50.0830°N, 14.4670°E)
Time: 10:17:20
(UTC+02:00)

ISS - Pass Details

Date: 01 May 2025
Orbit: 416 x 419 km, 51.6° (Epoch: 18 May)

Event Time Altitude Azimuth Distance (km) Brightness Sun altitude
Exits shadow 03:47:08 22° 272° (W) 963 -2.3 -15.1°
Maximum altitude 03:49:08 70° 351° (N) 449 -3.6 -14.9°
Drops below altitude 10° 03:52:29 10° 77° (ENE) 1,497 -0.1 -14.5°
Sets 03:54:36 0° 80° (E) 2,362 1.0 -14.3°
